Погода в Горном

Россия / Приморский край     44°50′30″N   133°57′30″E
темп.,
°C
ветер,
м/с
пор.,
м/с
влажн.,
%
обл.,
%
осадки,
мм/ч
давл.,
гПа
погр.,
м
17 июня, чт
чт1701:00+14юв21825 0.0 100718
04:00+12юв2288100 0.0 100830
07:00+13вюв2277100 0.0 1008103
10:00+20юв2352100 0.0 1006536
13:00+26ю3435100 0.0 10041306
16:00+27з4535100 0.0 10032132
19:00+21сз1378100 0.0 1004132
22:00+17ссз0094100 0.0 100411
18 июня, пт
пт1801:00+15юв2191100 0.0 100319
04:00+14ююв1192100 0.0 100313
07:00+14юв1187100 0.0 100280
10:00+19ююв2466100 0.0 1001743
13:00+20зюз4860100 0.3 1001995
16:00+17юз2494100 2.9 1000428
19:00+14ююв1298100 5.4 100165
22:00+14в1299100 10.1 100270
19 июня, сб
сб1901:00+14вюв1199100 3.4 100240
04:00+13вюв1199100 3.9 100151
07:00+14вюв1297100 0.0 1002122
10:00+17ююв3569100 0.0 1002939
13:00+19юв4453100 0.0 10021282
16:00+19юв4453100 0.0 10021289
19:00+17юв3563100 0.0 1002839
22:00+11юв258295 0.0 1005156
20 июня, вс
вс2001:00+10вюв1283100 0.0 1006123
04:00+10вюв128094 0.0 1006150
07:00+11вюв127887 0.0 1007253
10:00+15юв2364100 0.0 1007718
13:00+14юв236597 0.0 1008527
16:00+15вюв2461100 0.0 1007561
19:00+13юв127276 0.0 1008162
22:00+9юв2183100 0.0 100918
21 июня, пн
пн2101:00+8вюв1186100 0.0 101114
04:00+7вюв1185100 0.0 101114
07:00+9в126882 0.0 1012109
10:00+16вюв1347100 0.0 1011727
13:00+20всв1337100 0.0 10101654
16:00+22св0335100 0.0 10082203
19:00+19сз2560100 0.0 1008200
22:00+14зсз118482 0.0 101011